Home > Weather > North Bay > Past weeks

Flag for Canada Past Weather in North Bay, Ontario, Canada — Yesterday and Last 2 Weeks

Now
73 °F

Scattered clouds.


Feels Like: 74 °F
Forecast: 60 / 78 °F
Wind: 12 mph from South

Location: North Bay

Current Time: Jun 26, 2016 at 8:27:21 PM

Latest Report: Jun 26, 2016 at 8:00 PM


Visibility: 30 mi

Pressure: 29.87 "Hg

Humidity: 78%

Dew Point: 66 °F

Location of North BayLocation

Past Weather in North Bay — Graph

°F

North Bay Temperature Yesterday

Maximum temperature yesterday: 81 °F (at 4:00 PM)
Minimum temperature yesterday: 54 °F (at 6:00 AM)
Average temperature yesterday: 67 °F

High & Low Weather Summary for the Past Weeks

 TemperatureHumidityPressure
High84 °F (Jun 18, 3:00 PM)100% (Jun 22, 4:03 AM)30.22 "Hg (Jun 22, 4:03 AM)
Low37 °F (Jun 14, 4:00 AM)23% (Jun 16, 6:00 PM)29.57 "Hg (Jun 11, 9:00 PM)
Average64 °F57%29.97 "Hg
* Reported Jun 11 7:00 PM — Jun 26 7:00 PM, North Bay, Weather by CustomWeather, © 2016

Note: Actual official high and low records may vary slightly from our data, if they occured in-between our weather recording intervals... More about our weather records

Advertising

North Bay Weather History for the Previous 24 Hours

Scroll right to see more
 ConditionsComfort  
Time TempWeatherWind HumidityBarometerVisibility
7:00 PM
Sun, Jun 26
73 °FScattered clouds.12 mph78%29.88 "Hg30 mi
6:00 PM73 °FScattered clouds.14 mph78%29.89 "Hg10 mi
5:00 PM70 °FPartly sunny.12 mph88%29.91 "Hg10 mi
4:00 PM70 °FMostly cloudy.8 mph88%29.91 "Hg15 mi
3:00 PM79 °FMostly cloudy.20 mph54%29.88 "Hg30 mi
2:00 PM79 °FBroken clouds.9 mph58%29.92 "Hg30 mi
1:52 PM75 °FBroken clouds.9 mph65%29.93 "Hg30 mi
1:00 PM77 °FMostly cloudy.15 mph51%29.96 "Hg30 mi
12:00 PM77 °FMore clouds than sun.16 mph51%29.96 "Hg30 mi
11:00 AM75 °FOvercast.15 mph50%29.97 "Hg30 mi
10:00 AM75 °FBroken clouds.14 mph50%29.99 "Hg30 mi
9:00 AM72 °FPartly sunny.12 mph53%30.00 "Hg30 mi
8:00 AM68 °FBroken clouds.9 mph60%30.01 "Hg30 mi
7:00 AM64 °FScattered clouds.7 mph68%30.03 "Hg30 mi
6:00 AM64 °FPassing clouds.9 mph68%30.02 "Hg9 mi
5:00 AM64 °FPassing clouds.8 mph68%30.03 "Hg9 mi
4:00 AM64 °FPassing clouds.9 mph68%30.03 "Hg9 mi
3:00 AM63 °FClear.8 mph68%30.03 "Hg9 mi
2:00 AM66 °FMostly cloudy.6 mph60%30.07 "Hg9 mi
1:00 AM68 °FMostly cloudy.6 mph56%30.08 "Hg9 mi
12:03 AM68 °FMostly cloudy.6 mph60%30.09 "Hg9 mi
11:00 PM
Sat, Jun 25
68 °FMostly cloudy.6 mph60%30.07 "Hg9 mi
10:00 PM70 °FPartly sunny.9 mph57%30.06 "Hg15 mi
9:00 PM70 °FPartly sunny.9 mph53%30.06 "Hg30 mi
8:00 PM73 °FHigh level clouds.7 mph47%30.10 "Hg30 mi
Weather by CustomWeather, © 2016

See weather overviewHow to use our weather pages